Location: Unspecified
(0.0000°N, 0.0000°E)
Time: 05:20:56
(UTC+00:00)

Courier 1B Rocket - Pass Details

Date: 17 April 2021
Orbit: 920 x 1202 km, 28.3° (Epoch: 16 May)

Event Time Altitude Azimuth Distance (km) Brightness Sun altitude
Rises 19:59:06 0° 295° (WNW) 3,703 9.2 -29.3°
Reaches altitude 10° 20:05:40 10° 340° (NNW) 2,851 7.8 -30.9°
Maximum altitude 20:05:57 10° 343° (NNW) 2,853 7.7 -31.0°
Drops below altitude 10° 20:06:13 10° 345° (NNW) 2,859 7.7 -31.1°
Enters shadow 20:11:06 - 20° (NNE) 3,468 7.8 -32.3°
